Location: *
(53.9002°N, 27.5624°E)
Time: 12:48:18
(UTC+00:00)

Cosmos 1624 Rocket - Pass Details

Date: 12 November 2019
Orbit: 756 x 785 km, 74.0° (Epoch: 12 December)

Event Time Altitude Azimuth Distance (km) Brightness Sun altitude
Rises 17:36:15 0° 332° (NNW) 3,284 7.8 -29.3°
Reaches altitude 10° 17:38:39 10° 329° (NNW) 2,354 7.0 -29.6°
Enters shadow 17:43:27 62° 281° (W) 886 4.4 -30.3°
